{"data":{"norad_id":45419,"epoch":"2026-05-24T23:18:56.238336Z","epoch_age_seconds":77669,"freshness":"FRESH","line1":"1 45419U 20019BM  26144.97148424  .00090588  00000+0  92936-3 0  9992","line2":"2 45419  53.0463 141.8497 0008331   2.8886 357.2175 15.64176813341568","mean_motion":15.64176813,"eccentricity":0.0008331,"inclination_deg":53.0463,"raan_deg":141.8497,"arg_perigee_deg":2.8886,"mean_anomaly_deg":357.2175,"bstar":0.00092936,"rev_number":34156,"period_min":92.061203569318,"perigee_km":369.98072710825,"apogee_km":381.23381581336,"semimajor_km":6753.7442714608,"source":"CELESTRAK","updated_at":"2026-05-25T13:38:16.420503Z"}}